Regional Weather Roundup
Issued by NWS

Home | Current Version | Previous Version | Text Only | Print | Product List | Glossary Off
Versions: 1 2 3 4 5 6 7 8 9 10 11 12 13 14 15 16 17 18 19 20 21 22 23 24 25 26 27 28 29 30 31 32 33 34 35 36 37 38 39 40 41 42 43 44 45 46 47 48 49 50

190
ASUS43 KDMX 132003
RWRIA

WEATHER ROUNDUP FOR IOWA
NATIONAL WEATHER SERVICE DES MOINES IA
200 PM CST SAT FEB 13 2016

NOTE: "FAIR" INDICATES FEW OR NO CLOUDS BELOW 12,000 FEET WITH NO
SIGNIFICANT WEATHER AND/OR OBSTRUCTIONS TO VISIBILITY.

* - THESE STATIONS ARE NOT NWS STATIONS...THUS NOT UNDER NWS
QUALITY CONTROL.  THEY ALSO DO NOT REPORT WEATHER SUCH
AS PRECIPITATION OR FOG.

IAZ001>003-012>014-020>022-031>034-043>046-132100-
   NORTHWEST IOWA

CITY           SKY/WX    TMP DP  RH WIND       PRES   REMARKS
CARROLL *      CLOUDY     9   1  72 SE13      30.46F WCI  -7
CHEROKEE *     CLOUDY     9   1  72 SE10      30.44F WCI  -6
DENISON *      CLOUDY    12   3  67 SE9       30.42F WCI   0
LE MARS *      CLOUDY    10   3  72 SE13G21   30.41F WCI  -5
ORANGE CITY *  CLOUDY     9   1  72 SE10G16   30.39F WCI  -6
SHELDON *      CLOUDY     9   0  66 SE15      30.39F WCI  -8
SIOUX CITY     CLOUDY    13   3  64 SE15      30.42F WCI  -3
SPENCER        CLOUDY     6  -2  69 SE15      30.43F WCI -12
STORM LAKE *   CLOUDY     7   0  72 SE16      30.42F WCI -11
$$

IAZ055>058-069>071-079>083-090>094-132100-
   SOUTHWEST IOWA

CITY           SKY/WX    TMP DP  RH WIND       PRES   REMARKS
ATLANTIC *     CLOUDY    14   0  52 SE9G15    30.46F WCI   2
AUDUBON *      CLOUDY    12   3  67 SE8       30.45F WCI   1
CLARINDA *     CLOUDY    18   0  45 E10       30.48F WCI   6
COUNCIL BLFS * CLOUDY    16   5  62 SE14      30.41F WCI   1
CRESTON *      CLOUDY    14  -2  48 SE13      30.48F WCI   0
HARLAN  *      CLOUDY    14   3  62 SE12      30.47F WCI   0
LAMONI         CLOUDY    14  -1  51 SE7       30.49F WCI   4
RED OAK *      CLOUDY    18   1  49 SE12      30.46F WCI   5
SHENANDOAH *   CLOUDY    18   1  49 SE12      30.46F WCI   5
$$

IAZ047>049-059>061-072>074-084-132100-
   CENTRAL IOWA

CITY           SKY/WX    TMP DP  RH WIND       PRES   REMARKS
AMES           CLOUDY    10  -2  58 SE7       30.53F WCI  -1
ANKENY *       CLOUDY    12  -2  52 SE8       30.53F WCI   1
BOONE *        CLOUDY    10   0  61 SE9       30.49F WCI  -2
CHARITON *     CLOUDY    14   0  52 SE7       30.51F WCI   4
DES MOINES     CLOUDY    12  -4  48 SE8       30.53F WCI   0
GRINNELL*      CLOUDY    12  -2  52 E5        30.54F WCI   4
KNOXVILLE *    CLOUDY    12  -4  48 VRB5      30.52F WCI   4
MARSHALLTOWN   CLOUDY    11  -1  58 CALM      30.52F
NEWTON *       CLOUDY    12  -2  52 S6        30.54F WCI   3
PELLA *        CLOUDY    14  -1  51 CALM      30.56F
$$

IAZ004>006-015-016-023>025-035-036-132100-
   NORTH CENTRAL IOWA

CITY           SKY/WX    TMP DP  RH WIND       PRES   REMARKS
ALGONA *       CLOUDY     7  -2  66 SE15      30.45F WCI -11
CLARION *      CLOUDY     7  -4  61 SE10      30.50F WCI  -8
ESTHERVILLE    CLOUDY     7   0  73 SE17      30.43F WCI -12
FORT DODGE *   CLOUDY     9  -2  61 E7        30.49F WCI  -3
MASON CITY     CLOUDY     4  -4  69 S8        30.51F WCI  -9
FOREST CITY *  CLOUDY     7  -4  61 SE9       30.49F WCI  -7
WEBSTER CITY * CLOUDY     7  -2  66 SE9       30.49F WCI  -7
IOWA FALLS *   CLOUDY    10   0  61 SE6       30.52F HAZE    WCI   1
$$

IAZ007>011-017>019-026>030-037>042-050>054-066-132100-
   NORTHEAST IOWA

CITY           SKY/WX    TMP DP  RH WIND       PRES   REMARKS
CEDAR RAPIDS   MOSUNNY   15  -3  44 N6        30.54F WCI   6
CHARLES CITY * MOSUNNY    7  -9  47 CALM      30.53F
CLINTON *      SUNNY     21  -4  33 NE8       30.57F WCI  11
DECORAH *      CLOUDY     7  -9  47 CALM      30.51F
DUBUQUE        SUNNY     11  -7  44 N8        30.54F WCI  -1
MONTICELLO *   SUNNY     12  -6  44 VRB5      30.56F WCI   4
OELWEIN *      CLOUDY     7  -6  56 CALM      30.55F
WATERLOO       CLOUDY     8  -6  52 NE6       30.55F WCI  -2
$$

IAZ064-065-067-068-078-132100-
   EAST CENTRAL IOWA

CITY           SKY/WX    TMP DP  RH WIND       PRES   REMARKS
DAVENPORT      SUNNY     17  -7  34 NE6       30.56F WCI   9
IOWA CITY      CLOUDY    18  -7  32 NE3       30.58F
MT. PLEASANT * SUNNY     20   0  41 NE6       30.56F WCI  13
MUSCATINE *    MOSUNNY   18  -8  32 N7        30.59F WCI   8
QUAD CITIES    SUNNY     18  -8  31 NW5       30.57F WCI  11
$$

IAZ062-063-075>077-085>089-095>099-132100-
   SOUTHEAST IOWA

CITY           SKY/WX    TMP DP  RH WIND       PRES   REMARKS
BURLINGTON     CLOUDY    18  -5  36 CALM      30.56F
FAIRFIELD *    CLOUDY    16  -4  41 CALM      30.55F
FORT MADISON * SUNNY     18   0  45 CALM      30.56F
KEOKUK *       PTSUNNY   18   0  45 VRB6      30.56F WCI   9
OSKALOOSA *    CLOUDY    14   0  52 CALM      30.55F
OTTUMWA        CLOUDY    14  -1  51 VRB3      30.55F
WASHINGTON *   SUNNY     16  -4  41 CALM      30.57F
$$

ABBREVIATIONS USED IN REMARKS
   TC - TEMPERATURES IN CELSIUS
  WCI - WIND CHILL INDEX
   HX - HEAT INDEX
  VSB - VISIBILITY
$$





USA.gov is the U.S. government's official web portal to all federal, state and local government web resources and services.